DF4WC-13 Weather Reports


time (UTC)temp
F
wind
direction
speed
knots
gust
knots
rain 1hr
in
rain 24hr
in
rain mn
in
humidity
%
barometer
mb
20260507091719 -23 0 0.0 0.0 0.00 0.09 0.00 33 814.4
20260507084719 -23 0 0.0 0.0 0.00 0.09 0.00 34 814.4
20260507081719 -23 0 0.0 0.0 0.00 0.09 0.00 37 814.4
20260507074719 -23 0 0.0 0.0 0.00 0.09 0.00 48 814.4
20260507071719 -23 0 0.0 0.0 0.00 0.09 0.00 57 814.4
20260507064720 -23 0 0.0 0.0 0.00 0.09 0.00 59 814.4
20260507061720 -23 0 0.0 0.0 0.00 0.09 0.00 60 814.4
20260507054720 -23 0 0.0 0.0 0.00 0.09 0.00 60 814.4
20260507051720 -23 0 0.0 0.0 0.00 0.09 0.00 61 814.4
20260507044720 -23 0 0.0 0.0 0.00 0.09 0.00 60 814.4
20260507041720 -23 0 0.0 0.0 0.04 0.09 0.00 58 814.4
20260507034720 -23 0 0.0 0.0 0.04 0.07 0.00 55 814.4
20260507031720 -23 0 0.0 0.0 0.06 0.06 0.00 52 814.4
20260507024720 -23 0 0.0 0.0 0.04 0.04 0.00 48 814.4
20260507021720 -23 0 0.0 0.0 0.00 0.00 0.00 44 814.4
20260507014720 -23 0 0.0 0.0 0.00 0.02 0.00 41 814.4
20260507011720 -23 0 0.0 0.0 0.00 0.02 0.00 41 814.4
20260507004720 -23 0 0.0 0.0 0.00 0.02 0.00 41 814.4
20260507001720 -23 0 0.0 0.0 0.00 0.02 0.00 41 814.4
20260506234720 -23 0 0.0 0.0 0.00 0.02 0.00 42 814.4
20260506231720 -23 0 0.0 0.0 0.00 0.02 0.00 42 814.4
20260506224720 -23 0 0.0 0.0 0.00 0.04 0.00 42 814.4
20260506221720 -23 0 0.0 0.0 0.00 0.07 0.00 41 814.4
20260506214720 -23 0 0.0 0.0 0.00 0.15 0.00 41 814.4
20260506211720 -23 0 0.0 0.0 0.00 0.15 0.00 42 814.4
20260506204720 -23 0 0.0 0.0 0.00 0.15 0.00 42 814.4
20260506201720 -23 0 0.0 0.0 0.00 0.15 0.00 43 814.4
20260506194720 -23 0 0.0 0.0 0.00 0.15 0.00 39 814.4
20260506191720 -23 0 0.0 0.0 0.00 0.15 0.00 42 814.4
20260506184720 -23 0 0.0 0.0 0.00 0.15 0.00 42 814.4
20260506181720 -23 0 0.0 0.0 0.00 0.15 0.00 42 814.4
20260506174720 -23 0 0.0 0.0 0.00 0.15 0.00 41 814.4
20260506171718 -23 0 0.0 0.0 0.00 0.15 0.00 32 814.4
20260506164719 -23 0 0.0 0.0 0.00 0.17 0.00 25 814.4
20260506161719 -23 0 0.0 0.0 0.00 0.17 0.00 24 814.4
20260506154719 -23 0 0.0 0.0 0.00 0.17 0.00 23 814.4
20260506151719 -23 0 0.0 0.9 0.00 0.21 0.00 22 814.4
20260506144719 -23 0 0.0 0.0 0.00 0.31 0.00 22 814.4
20260506141719 -23 0 0.0 0.9 0.00 0.32 0.00 20 814.4
20260506134719 -23 0 0.0 0.0 0.00 0.34 0.00 20 814.4
20260506131719 -23 0 0.0 0.0 0.00 0.34 0.00 20 814.4
20260506124719 -23 0 0.0 0.0 0.00 0.34 0.00 20 814.4
20260506121719 -23 0 0.0 0.0 0.00 0.34 0.00 20 814.4
20260506114719 -23 0 0.0 0.9 0.00 0.34 0.00 21 814.4
20260506111719 -23 0 0.0 0.0 0.00 0.34 0.00 22 814.4
20260506104719 -23 0 0.0 0.0 0.00 0.34 0.00 21 814.4
20260506101719 -23 0 0.0 0.0 0.00 0.34 0.00 22 814.4
20260506094719 -23 0 0.0 0.0 0.00 0.34 0.00 22 814.4